www.pogodaiklimat.ru

Погода и климат >> Архив погоды >> Россия >> Ямало-Ненецкий АО >> Новый Порт


АРХИВ ПОГОДЫ в Новом Порте

Время (UTC), дата Ветер
(напр.,м/с)
 
Видим.   Явления Облачность Т
(С)
Тd
(С)
f
(%)
Тe
(С)
Тes
(С)
Комфортность P
(гПа)
Po
(гПа)
Тmin
(С)
Tmax
(С)
R
(мм)
R24
(мм)
S
(см)
03 12.09 СЗ 5 10 км 3/0
[Ac trans Ci fib]
+0.3 -2.7 80 -6 -5 1020.4 1018.8 -2.8
06 12.09 СЗ 5 10 км 8/1 300 м
[Cu hum Ac trans Ci fib]
+4.2 -2.4 62 -0 +1 1020.1 1018.6
12 12.09 СЗ 3 10 км 5/1 300 м
[Cu hum Ac trans Ci fib]
+5.9 -1.4 59 +3 +3 1019.8 1018.3
15 12.09 СЗ 3 10 км 5/1 300 м
[Cu hum Ac trans Ci fib]
+0.9 -1.8 82 -4 -4 1019.7 1018.1 +6.4
18 12.09 СЗ 3 10 км 3/0
[Ac trans]
-0.3 -2.5 85 -5 -5 1018.7 1017.2
00 13.09 С 3 10 км 6/3 300 м
[Cu hum Ac trans]
-2.8 -3.1 98 -8 -8 1016.6 1015.0
03 13.09 ЮВ 4 10 км 8/8 450 м
[Sc]
+4.7 +1.0 77 +1 +1 1015.7 1014.2 -3.0
06 13.09 В 4 10 км 8/8 480 м
[Sc]
+4.9 +0.7 74 +1 +1 1015.0 1013.5
12 13.09 В 4 10 км 8/8 500 м
[Sc]
+3.6 -0.4 75 -1 -1 1014.4 1012.9
15 13.09 В 3 10 км 6/0
[Ac trans]
+3.1 -0.4 78 -1 -1 1014.1 1012.6 +5.2
18 13.09 В 3 10 км 4/0
[Ac trans]
+4.1 -0.5 72 +1 +1 1013.7 1012.2
00 14.09 В 4 10 км 9/9 360 м
[Sc]
+3.1 -0.5 77 -1 -1 1013.8 1012.3
03 14.09 В 4 10 км 9/9 400 м
[Sc]
+3.5 -1.1 72 -1 -1 1014.2 1012.6 +2.9
06 14.09 В 5 10 км 9/9 450 м
[Cu Sc]
+4.1 +0.7 78 -1 -1 1014.3 1012.8
12 14.09 В 3 10 км 8/8 480 м
[Cu hum]
+2.9 -0.7 77 -1 -1 1015.0 1013.5
15 14.09 В 4 10 км 5/5 300 м
[Cu hum]
+3.5 -0.4 76 -1 -1 1014.8 1013.3 +4.5
18 14.09 В 5 10 км 9/9 480 м
[Cu hum]
+2.5 -0.8 79 -3 -3 1014.8 1013.3
00 15.09 В 6 10 км 9/9 420 м
[Cu Sc]
+0.9 -1.7 83 -5 -5 1014.3 1012.8
03 15.09 ЮВ 5 10 км 10/10 400 м
[Sc]
+1.0 -1.8 82 -5 -5 1014.0 1012.4 +0.8
06 15.09 В 5 10 км 10/10 570 м
[Sc]
+0.6 -1.5 86 -5 -5 1012.8 1011.3 +0.5
12 15.09 В 10
{13}
10 км 8/4 300 м
[Sc Ac trans]
+3.3 -0.7 75 -4 -4 1009.2 1007.7
15 15.09 ЮВ 11
{15}
10 км 10/0
[Ac und]
+3.0 -1.2 74 -4 -4 1007.8 1006.3 +3.5
18 15.09 В 10
{10}
10 км слаб. ливневой дождь 10/10 300 м
[Cb cap]
+2.5 +1.8 95 -5 -5 1005.2 1003.7
00 16.09 ЮВ 11
{18}
10 км {ливн. осадки} 10/10 300 м
[Sc]
+2.7 +1.8 94 -5 -5 1000.6 999.1
03 16.09 ЮВ 10
{15}
10 км 10/10 270 м
[Sc]
+2.7 +2.4 98 -5 -5 999.2 997.7 +2.1 0.6
06 16.09 ЮВ 7
{14}
4000 м слаб. морось 10/10 60 м
[St]
+3.7 +3.4 98 -3 -3 997.9 996.4
12 16.09 Ю 5 4000 м слаб. морось 10/10 60 м
[St]
+5.4 +5.3 99 +1 +1 997.9 996.5
15 16.09 Ю 4 500 м туман ?/? +6.5 +6.4 99 +3 +3 997.6 996.1 +6.6 0.0
18 16.09 Ю 2 10 км в посл. час туман 9/9 420 м
[Sc]
+5.9 +5.8 99 +3 +3 996.7 995.8
00 17.09 ЮЗ 2 10 км 3/0
[Ac trans]
+3.6 +3.5 99 0 0 995.6 994.1
03 17.09 ЮЗ 3 10 км 4/0
[Ac trans]
+3.6 +3.5 99 -1 0 995.3 993.8 +1.6
06 17.09 ЮЗ 2 10 км 6/4 300 м
[Sc Ac trans]
+7.5 +5.4 87 +5 +7 995.9 994.4
12 17.09 ЮЗ 4 10 км 3/0
[Ac trans]
+7.8 +5.3 84 +4 +5 996.2 995.3
15 17.09 ЮЗ 4 10 км 1/0
[Ac trans]
+2.7 +2.1 96 -2 -2 996.8 995.3 +11.2 2
18 17.09 штиль 0 10 км 4/0
[Ac trans]
+3.8 +3.2 96 +3 +3 996.7 995.2
00 18.09 Ю 2 10 км 8/0
[Ac trans]
+5.3 +4.4 94 +3 +3 996.6 995.1
03 18.09 ЮВ 1 10 км 8/0
[Ac trans]
+5.7 +5.4 98 +4 +5 996.9 995.5 +2.0
06 18.09 Ю 2 10 км 9/0
[Ac trans Ci fib]
+8.1 +6.1 87 +6 +8 997.3 995.9
12 18.09 Ю 3 10 км 8/0
[Ac trans Ci fib]
+7.5 +6.1 91 +5 +5 998.4 996.9
15 18.09 ЮВ 3 10 км 10/3 300 м
[Cu hum Ac und]
+7.3 +6.4 94 +4 +4 998.2 996.7 +9.8
18 18.09 Ю 3 10 км 10/0
[Ac und]
+6.9 +6.0 94 +4 +4 997.9 996.4
00 19.09 В 3 10 км 10/3 300 м
[Cu hum Ac und]
+6.6 +6.2 97 +3 +3 996.1 994.7

 

Местоположение метеостанции Новый Порт (Ямало-Ненецкий АО, Россия): широта 67.68 долгота 72.88 высота над уровнем моря 12 м.

В архиве по умолчанию представлена погода в Новом Порте за последнюю неделю. Архивные данные за месяц целиком и за предыдущие месяцы, начиная с января 2011 года, Вы можете получить, выбрав интересующий диапазон дат из раскрывающегося списка и нажав кнопку "Ввод!".


*Определитесь, кто Вы:
робот инопланетянин человек

Внимание! Время в таблицах - всемирное. Для получения местного времени необходимо прибавить поправку, которая равна 5 ч.

Смотрите также архив погоды в соседних городах и на ближайших метеорологических станциях:

Погода в Ныде (Ямало-Ненецкий АО, Россия) (117 км)
Погода в Пангодах (Ямало-Ненецкий АО, Россия) (218 км)
Погода в Белоярске (Ямало-Ненецкий АО, Россия) (223 км)
Погода в Антипаюте (Ямало-Ненецкий АО, Россия) (225 км)
Погода в Новом Уренгое (Ямало-Ненецкий АО, Россия) (245 км)
Погода в Надыме (Ямало-Ненецкий АО, Россия) (246 км)
Погода в Тазовском (Ямало-Ненецкий АО, Россия) (249 км)
Погода в Полуе (Ямало-Ненецкий АО, Россия) (260 км)
Погода в Сеяхе (Ямало-Ненецкий АО, Россия) (277 км)
Погода в Салехарде (Ямало-Ненецкий АО, Россия) (297 км)

Пояснения к столбцам:

Ветер - указаны скорость ветра в м/с - средняя за 10 мин, порывы в срок и между сроками (в фигурных скобках) и направление, откуда дует ветер: С - северный, СВ - северо-восточный, В - восточный, ЮВ - юго-восточный, Ю - южный, ЮЗ - юго-западный, З - западный, СЗ - северо-западный.
Видимость - горизонтальная дальность видимости в метрах или километрах. При видимости от 1 до 10 км при отсутствии осадков обычно наблюдается дымка, при ухудшении видимости до 1 км и менее - туман. В сухую погоду видимость может ухудшаться дымом, пылью или мглою.
Явления - указаны атмосферные явления, наблюдавшиеся в срок или в последний час перед сроком; фигурными скобками обозначены явления, наблюдавшиеся между сроками (за 1-3 часа до срока); квадратными скобками обозначены град или гололедные отложения с указанием их диаметра в мм.
Облачность - указаны через наклонную черту общая и нижняя облачность в баллах и высота нижней границы облаков в метрах; квадратными скобками обозначены формы облаков: Ci - перистые, Cs - перисто-слоистые, Cc - перисто-кучевые, Ac - высококучевые, As - высокослоистые, Sc - слоисто-кучевые, Ns - слоисто-дождевые, Cu - кучевые, Cb - кучево-дождевые. Подробнее классификацию облаков см. в Атласе облаков (PDF).
T - Температура воздуха - температура, измеренная на высоте 2 м над землей.
Td - Температура точки росы - температура, при понижении до которой содержащийся в воздухе водяной пар достигнет насыщения.
f - Относительная влажность воздуха - влажноcть воздуха, измеренная на высоте 2 м над землей.
Te - Эффективная температура - температура, которую ощущает одетый по сезону человек в тени. Характеристика душности погоды. При расчете учитывается влияние влажности воздуха и скорости ветра на теплоощущения человека.
Tes - Эффективная температура на солнце - температура, которую ощущает человек, с поправкой на солнечный нагрев. Характеристика знойности погоды. Зависит от высоты солнца над горизонтом, облачности и скорости ветра. Ночью, в пасмурную погоду, а также при ветре 12 м/с и более поправка равна нулю.
P - Атмосферное давление - приведенное к уровню моря атмосферное давление.
Po - Атмосферное давление - измеренное на уровне метеостанции атмосферное давление.
Tmin - Минимальная температура - минимум температуры воздуха на высоте 2 м над землей.
Tmax - Максимальная температура - максимум температуры воздуха на высоте 2 м над землей.
R - Количество осадков - Количество выпавших осадков за период времени, мм. При наведении курсора мыши на число - период времени, за который выпало указанное количество осадков.
R24 - Количество осадков - Количество выпавших осадков за 24 часа, мм.
S - Снежный покров - Высота снежного покрова, см. При наведении курсора мыши на число - состояние снежного покрова и степень покрытия местности в баллах.